Tracking 17145 objects as of 24-May-2015
HD Live streaming from Space Station

GLOBALSTAR M006

Track GLOBALSTAR M006 now!
10-day predictions
GLOBALSTAR M006 is classified as:


NORAD ID: 25307
Int'l Code: 1998-023B
Perigee: 1,419.9 km
Apogee: 1,421.5 km
Inclination: 52.0 °
Period: 114.1 minutes
Semi major axis: 7791 km
RCS: 2.7065 m2 (large)
Launch date: April 24, 1998
Source: Globalstar (GLOB)
Your satellite tracking list
Your tracking list is empty





NASA's NSSDC Master Catalog

Two Line Element Set (TLE):
1 25307U 98023B   15143.45962516 -.00000102  00000-0  11062-4 0  9999
2 25307 051.9955 174.5115 0001040 256.8132 243.0582 12.62271616787795

Source of the keplerian elements: AFSPC

N2YO: 336